TimeCST,TemperatureF,Dew PointF,Humidity,Sea Level PressureIn,VisibilityMPH,Wind Direction,Wind SpeedMPH,Gust SpeedMPH,PrecipitationIn,Events,Conditions,WindDirDegrees,DateUTC
12:15 AM,24.3,16.7,73,30.33,10.0,North,11.5,-,N/A,,Clear,350,2013-02-15 06:15:00
12:35 AM,23.5,17.2,77,30.33,10.0,NNW,9.2,-,N/A,,Clear,340,2013-02-15 06:35:00
12:55 AM,23.0,16.9,77,30.34,10.0,NNW,8.1,-,N/A,,Clear,330,2013-02-15 06:55:00
1:15 AM,23.0,17.2,79,30.34,10.0,NNW,9.2,-,N/A,,Clear,340,2013-02-15 07:15:00
1:35 AM,22.6,17.1,79,30.34,10.0,NNW,8.1,-,N/A,,Clear,340,2013-02-15 07:35:00
1:55 AM,22.1,16.9,80,30.35,10.0,NW,4.6,-,N/A,,Clear,320,2013-02-15 07:55:00
2:15 AM,21.9,16.7,80,30.36,10.0,NW,4.6,-,N/A,,Clear,320,2013-02-15 08:15:00
2:55 AM,21.7,16.5,80,30.36,10.0,NW,5.8,-,N/A,,Clear,320,2013-02-15 08:55:00
3:15 AM,21.0,16.3,82,30.36,10.0,WNW,5.8,-,N/A,,Clear,290,2013-02-15 09:15:00
3:35 AM,20.8,16.2,82,30.36,10.0,WNW,6.9,-,N/A,,Clear,300,2013-02-15 09:35:00
4:15 AM,19.2,14.9,83,30.36,10.0,West,5.8,-,N/A,,Clear,260,2013-02-15 10:15:00
4:35 AM,18.5,14.9,86,30.36,10.0,West,5.8,-,N/A,,Clear,260,2013-02-15 10:35:00
4:55 AM,18.5,14.9,86,30.36,10.0,West,4.6,-,N/A,,Clear,270,2013-02-15 10:55:00
5:15 AM,18.5,14.4,84,30.36,10.0,West,3.5,-,N/A,,Clear,280,2013-02-15 11:15:00
5:35 AM,18.3,14.2,84,30.36,10.0,West,5.8,-,N/A,,Clear,260,2013-02-15 11:35:00
5:55 AM,17.4,13.6,85,30.36,10.0,Calm,Calm,-,N/A,,Clear,0,2013-02-15 11:55:00
6:15 AM,17.6,13.8,85,30.36,10.0,WSW,4.6,-,N/A,,Clear,250,2013-02-15 12:15:00
6:35 AM,18.5,14.4,84,30.37,10.0,West,5.8,-,N/A,,Clear,270,2013-02-15 12:35:00
6:55 AM,18.1,14.0,84,30.37,10.0,West,3.5,-,N/A,,Clear,270,2013-02-15 12:55:00
7:15 AM,18.1,14.0,84,30.37,10.0,West,3.5,-,N/A,,Clear,280,2013-02-15 13:15:00
7:35 AM,18.0,14.2,85,30.38,10.0,West,3.5,-,N/A,,Clear,260,2013-02-15 13:35:00
7:55 AM,18.7,14.5,84,30.38,10.0,West,5.8,-,N/A,,Clear,260,2013-02-15 13:55:00
8:15 AM,20.3,15.4,81,30.39,10.0,WSW,6.9,-,N/A,,Clear,250,2013-02-15 14:15:00
8:35 AM,21.7,16.5,80,30.39,10.0,WSW,6.9,-,N/A,,Clear,250,2013-02-15 14:35:00
8:55 AM,23.7,17.6,77,30.39,10.0,West,6.9,-,N/A,,Clear,270,2013-02-15 14:55:00
9:15 AM,25.3,18.5,75,30.39,10.0,West,6.9,-,N/A,,Clear,280,2013-02-15 15:15:00
9:35 AM,27.1,20.1,75,30.39,10.0,WNW,5.8,-,N/A,,Scattered Clouds,290,2013-02-15 15:35:00
9:55 AM,29.1,21.0,72,30.38,10.0,West,5.8,-,N/A,,Scattered Clouds,280,2013-02-15 15:55:00
10:15 AM,30.2,20.8,68,30.37,10.0,West,6.9,-,N/A,,Scattered Clouds,260,2013-02-15 16:15:00
10:35 AM,31.8,19.4,60,30.37,10.0,WNW,8.1,-,N/A,,Scattered Clouds,290,2013-02-15 16:35:00
10:55 AM,33.4,19.0,56,30.36,10.0,West,8.1,-,N/A,,Mostly Cloudy,260,2013-02-15 16:55:00
11:15 AM,34.3,19.2,54,30.36,10.0,WSW,6.9,-,N/A,,Scattered Clouds,250,2013-02-15 17:15:00
11:55 AM,34.7,18.3,51,30.35,10.0,West,10.4,-,N/A,,Overcast,260,2013-02-15 17:55:00
12:15 PM,34.9,18.0,50,30.34,10.0,West,10.4,-,N/A,,Overcast,280,2013-02-15 18:15:00
12:35 PM,36.1,19.4,51,30.34,10.0,West,12.7,-,N/A,,Mostly Cloudy,270,2013-02-15 18:35:00
12:55 PM,36.1,18.7,49,30.32,10.0,West,11.5,-,N/A,,Mostly Cloudy,270,2013-02-15 18:55:00
1:15 PM,36.0,19.0,50,30.31,10.0,West,4.6,-,N/A,,Mostly Cloudy,280,2013-02-15 19:15:00
1:35 PM,37.0,14.4,40,30.30,10.0,WNW,11.5,16.1,N/A,,Mostly Cloudy,300,2013-02-15 19:35:00
1:55 PM,38.1,12.9,36,30.29,10.0,WNW,15.0,-,N/A,,Overcast,300,2013-02-15 19:55:00
2:15 PM,38.1,13.8,37,30.28,10.0,NW,12.7,17.3,N/A,,Overcast,310,2013-02-15 20:15:00
2:35 PM,39.4,13.1,34,30.27,10.0,WNW,10.4,-,N/A,,Mostly Cloudy,300,2013-02-15 20:35:00
2:55 PM,39.2,12.0,33,30.27,10.0,WNW,12.7,17.3,N/A,,Mostly Cloudy,290,2013-02-15 20:55:00
3:15 PM,35.8,20.3,53,30.27,10.0,NNW,17.3,27.6,N/A,,Overcast,330,2013-02-15 21:15:00
3:35 PM,35.8,22.5,58,30.27,10.0,NW,10.4,18.4,N/A,,Mostly Cloudy,320,2013-02-15 21:35:00
3:55 PM,37.4,19.4,48,30.27,10.0,NW,15.0,20.7,N/A,,Overcast,320,2013-02-15 21:55:00
4:15 PM,35.1,22.8,61,30.27,10.0,WNW,8.1,-,N/A,,Overcast,300,2013-02-15 22:15:00
4:35 PM,36.3,18.7,49,30.27,10.0,North,18.4,27.6,N/A,,Mostly Cloudy,350,2013-02-15 22:35:00
4:55 PM,35.1,20.3,55,30.28,10.0,North,17.3,27.6,N/A,,Clear,360,2013-02-15 22:55:00
5:15 PM,32.9,21.6,63,30.29,10.0,NNW,12.7,21.9,N/A,,Clear,340,2013-02-15 23:15:00
5:35 PM,33.6,16.0,48,30.29,10.0,NNW,18.4,25.3,N/A,,Scattered Clouds,340,2013-02-15 23:35:00
5:55 PM,32.5,14.0,46,30.31,10.0,NNW,20.7,26.5,N/A,,Scattered Clouds,340,2013-02-15 23:55:00
6:15 PM,31.6,16.3,53,30.32,10.0,NNW,15.0,20.7,N/A,,Scattered Clouds,340,2013-02-16 00:15:00
6:35 PM,30.0,19.6,65,30.33,10.0,North,13.8,-,N/A,,Clear,350,2013-02-16 00:35:00
6:55 PM,30.0,19.9,66,30.34,10.0,North,16.1,-,N/A,,Mostly Cloudy,350,2013-02-16 00:55:00
7:15 PM,30.0,19.8,66,30.34,10.0,NNW,10.4,16.1,N/A,,Mostly Cloudy,340,2013-02-16 01:15:00
7:35 PM,28.8,18.5,66,30.34,10.0,NNW,10.4,16.1,N/A,,Clear,340,2013-02-16 01:35:00
7:55 PM,27.5,17.4,66,30.34,10.0,North,9.2,-,N/A,,Clear,350,2013-02-16 01:55:00
8:15 PM,27.3,16.7,64,30.34,10.0,North,8.1,-,N/A,,Mostly Cloudy,350,2013-02-16 02:15:00
8:35 PM,27.1,15.6,62,30.35,10.0,North,9.2,-,N/A,,Scattered Clouds,350,2013-02-16 02:35:00
8:55 PM,26.2,15.3,63,30.35,10.0,NNW,8.1,-,N/A,,Clear,340,2013-02-16 02:55:00
9:15 PM,25.2,15.4,67,30.35,10.0,NNW,4.6,-,N/A,,Clear,340,2013-02-16 03:15:00
9:35 PM,24.1,15.3,69,30.36,10.0,NNW,5.8,-,N/A,,Clear,330,2013-02-16 03:35:00
9:55 PM,23.5,14.9,70,30.36,10.0,NNW,8.1,-,N/A,,Clear,340,2013-02-16 03:55:00
10:15 PM,23.0,14.9,71,30.36,10.0,NNW,6.9,-,N/A,,Clear,340,2013-02-16 04:15:00
10:35 PM,22.3,14.9,73,30.36,10.0,NNW,5.8,-,N/A,,Clear,330,2013-02-16 04:35:00
10:55 PM,21.7,14.9,75,30.35,10.0,North,5.8,-,N/A,,Clear,350,2013-02-16 04:55:00
11:15 PM,22.1,14.9,74,30.35,10.0,NNW,5.8,-,N/A,,Clear,340,2013-02-16 05:15:00
11:35 PM,21.0,14.5,76,30.35,10.0,North,5.8,-,N/A,,Clear,350,2013-02-16 05:35:00
11:55 PM,20.1,14.2,78,30.35,10.0,NW,3.5,-,N/A,,Clear,320,2013-02-16 05:55:00